[[{"header":{"parameterUnit":"m.s-1","parameterCategory":1,"la1":30.2991,"la2":30.254,"lo1":-89.0895,"lo2":-89.0444,"dy":0.0017,"dx":0.0017,"nx":28,"ny":28,"refTime":"2024-10-08T21:00:00:Z","depth":0,"parameterNumber":2,"parameterNumberName":"U-component_of_WINDS"},"data":[0,0,0,0,0,0,0,0,0,0,0,0,0,0,0,0,0,0,0,0,0,0,0,0,0,0,0,0,0,0,0,0,0,0,0,0,0,0,0,0,0,0,0,0,0,0,0,0,0,0,0,0,0,0,0,0,0,0,-1.3979,-1.3979,0,-1.4046,-1.4047,-1.4048,-1.4042,-1.4041,-1.404,-1.4039,-1.4112,-1.4115,-1.4118,0,0,0,0,0,0,0,0,0,0,0,0,0,-1.3847,-1.3849,-1.3978,-1.3979,-1.398,-1.4046,-1.4047,-1.4048,-1.4043,-1.4041,-1.404,-1.4039,-1.4111,-1.4115,-1.4118,0,0,0,0,0,0,0,0,0,0,0,0,0,-1.3908,-1.385,-1.3978,-1.3985,-1.3987,-1.4046,-1.4047,-1.4048,-1.4043,-1.4041,-1.404,-1.4038,-1.411,-1.4114,-1.4118,-1.4176,0,0,-1.4132,-1.4134,0,0,0,0,0,0,0,0,-1.3905,-1.3913,-1.3983,-1.3985,-1.3987,-1.4034,-1.4027,-1.4091,-1.4043,-1.4022,-1.4039,-1.4038,-1.4088,-1.4094,-1.411,-1.418,-1.4183,-1.4132,-1.4135,-1.4137,-1.4138,0,0,0,0,0,0,0,-1.3901,-1.391,-1.4005,-1.3985,-1.3986,-1.3986,-1.3993,-1.404,-1.4063,-1.4023,-1.4023,-1.4031,-1.4088,-1.4106,-1.4112,-1.4184,-1.4132,-1.4136,-1.4139,-1.414,-1.4306,-1.4308,0,0,0,0,0,0,-1.3894,-1.3907,-1.4003,-1.4007,-1.3941,-1.399,-1.3997,-1.4021,-1.4062,-1.4067,-1.4032,-1.4031,-1.4099,-1.4107,-1.4114,-1.4186,-1.4137,-1.4141,-1.4143,-1.4304,-1.4306,-1.4308,0,0,0,0,0,0,-1.3892,-1.3903,-1.4001,-1.3957,-1.3969,-1.3993,-1.402,-1.4023,-1.404,-1.4069,-1.4073,-1.4046,-1.4098,-1.4108,-1.4161,-1.4188,-1.4143,-1.4147,-1.4302,-1.4305,-1.4307,-1.4329,0,0,0,0,0,0,-1.3888,-1.3902,-1.3924,-1.3958,-1.3972,-1.4046,-1.4021,-1.4025,-1.4048,-1.4046,-1.4083,-1.4087,-1.4098,-1.4155,-1.4165,-1.4193,-1.415,-1.43,-1.4303,-1.4306,-1.4326,-1.4332,-1.4337,0,0,0,0,0,-1.3883,-1.3928,-1.3925,-1.3936,-1.3999,-1.4047,-1.4055,-1.4065,-1.405,-1.4072,-1.409,-1.4086,-1.4183,-1.416,-1.4172,-1.4202,-1.4298,-1.4302,-1.4306,-1.4323,-1.4331,-1.4337,0,0,0,0,0,0,-1.3897,-1.3932,-1.3929,-1.3986,-1.4013,-1.4046,-1.4075,-1.4073,-1.4106,-1.4103,-1.4115,-1.4124,-1.4177,-1.4195,-1.4168,-1.4261,-1.4239,-1.4245,-1.4248,-1.4255,-1.4261,-1.4256,-1.4154,0,0,0,0,0,-1.3907,-1.3942,-1.3971,-1.4018,-1.4031,-1.4051,-1.4072,-1.4077,-1.4107,-1.4119,-1.4141,-1.417,-1.4207,-1.4232,-1.4268,-1.4328,-1.4337,-1.4354,-1.436,-1.4364,-1.4371,-1.4405,-1.4414,-1.4321,-1.4321,-1.4321,0,0,-1.3927,-1.395,-1.3972,-1.4021,-1.4043,-1.408,-1.4061,-1.4101,-1.4129,-1.4125,-1.4177,-1.4194,-1.4227,-1.4285,-1.4311,-1.4301,-1.4398,-1.4369,-1.4373,-1.4377,-1.441,-1.4419,-1.4427,-1.4324,-1.4324,-1.4323,0,0,-1.3984,-1.4004,-1.4046,-1.4068,-1.4102,-1.4114,-1.4124,-1.4157,-1.4168,-1.4219,-1.4218,-1.4251,-1.4315,-1.4339,-1.436,-1.4425,-1.4423,-1.4437,-1.4467,-1.4501,-1.4508,-1.4514,-1.4539,-1.4548,-1.4442,-1.4442,-1.4442,0,-1.4006,-1.4061,-1.4068,-1.4109,-1.4131,-1.4128,-1.4172,-1.4193,-1.4236,-1.4252,-1.424,-1.432,-1.4342,-1.4405,-1.4421,-1.4438,-1.4451,-1.4433,-1.4506,-1.4513,-1.4519,-1.4543,-1.4552,-1.4444,-1.4444,-1.4444,-1.4443,0,-1.4086,-1.4125,-1.4155,-1.4196,-1.4221,-1.4263,-1.4278,-1.4303,-1.4306,-1.432,-1.4373,-1.4399,-1.4441,-1.4456,-1.4459,-1.452,-1.4513,-1.4503,-1.4482,-1.4529,-1.4552,-1.4561,-1.4446,-1.4446,-1.4445,-1.4445,0,0,-1.4156,-1.42,-1.4211,-1.423,-1.4266,-1.4296,-1.4338,-1.4378,-1.44,-1.4429,-1.4466,-1.4519,-1.451,-1.4534,-1.454,-1.4569,-1.4621,-1.4555,-1.4556,-1.4568,-1.4691,-1.47,-1.4711,-1.4619,-1.462,-1.4622,-1.4689,0,-1.4217,-1.4291,-1.4299,-1.4365,-1.4401,-1.4398,-1.4435,-1.4461,-1.4475,-1.4509,-1.4524,-1.4563,-1.4547,-1.4561,-1.459,-1.4608,-1.4646,-1.4603,-1.4655,-1.4656,-1.4648,-1.4722,-1.4732,-1.4794,-1.4698,-1.47,-1.4701,0,-1.4299,-1.4331,-1.44,-1.4432,-1.4447,-1.448,-1.4517,-1.4549,-1.4579,-1.4587,-1.4613,-1.4615,-1.466,-1.4635,-1.4697,-1.4668,-1.4689,-1.4701,-1.4704,-1.4711,-1.4683,-1.4733,-1.4814,-1.4825,-1.4714,-1.4713,-1.4712,0,-1.4345,-1.4405,-1.4454,-1.4471,-1.4508,-1.4531,-1.4548,-1.4577,-1.46,-1.4633,-1.4648,-1.4686,-1.4707,-1.4737,-1.4749,-1.473,-1.4811,-1.4787,-1.4821,-1.4821,-1.484,-1.4839,-1.4928,-1.485,-1.485,-1.485,-1.485,0,-1.4415,-1.4458,-1.4476,-1.4506,-1.4555,-1.4564,-1.4612,-1.4628,-1.4653,-1.4688,-1.4687,-1.472,-1.4734,-1.4769,-1.4779,-1.483,-1.4839,-1.4848,-1.4851,-1.4849,-1.4849,-1.4865,-1.4862,-1.4853,-1.4852,-1.4851,-1.4851,0,-1.4475,-1.4488,-1.4543,-1.4573,-1.4582,-1.4616,-1.4643,-1.4673,-1.4686,-1.473,-1.4741,-1.4762,-1.4803,-1.4818,-1.4869,-1.4875,-1.4935,-1.4933,-1.4925,-1.4926,-1.496,-1.4957,-1.5064,-1.5079,-1.499,-1.499,-1.4991,0,-1.452,-1.4553,-1.4586,-1.4609,-1.4627,-1.4663,-1.4687,-1.4697,-1.4722,-1.4759,-1.4785,-1.4825,-1.4859,-1.4925,-1.4946,-1.4985,-1.4985,-1.5019,-1.4991,-1.4989,-1.4988,-1.4987,-1.4991,-1.5026,-1.5027,-1.5027,-1.5028,0,-1.4598,-1.4603,-1.4636,-1.4673,-1.4701,-1.473,-1.4758,-1.4777,-1.4791,-1.482,-1.4861,-1.4887,-1.4938,-1.498,-1.5019,-1.5037,-1.5036,-1.5036,-1.5047,-1.5047,-1.5042,-1.5047,-1.4942,-1.5035,-1.5034,-1.5033,-1.5033,-1.5033,-1.4653,-1.4683,-1.4711,-1.4749,-1.4771,-1.4798,-1.4828,-1.4844,-1.4879,-1.4921,-1.4924,-1.497,-1.5,-1.5053,-1.5073,-1.5109,-1.51,-1.5115,-1.5119,-1.5123,-1.5126,-1.5034,-1.5116,-1.5116,-1.5116,-1.5116,-1.5116,0,-1.4733,-1.4751,-1.4786,-1.4825,-1.4855,-1.4849,-1.488,-1.4906,-1.4946,-1.4973,-1.5006,-1.5054,-1.5094,-1.5117,-1.5157,-1.5182,-1.5182,-1.5193,-1.5192,-1.5197,-1.5131,-1.5119,-1.5192,-1.5192,-1.5192,-1.5192,-1.5192,-1.5192,-1.4779,-1.4829,-1.4837,-1.4899,-1.4916,-1.496,-1.4979,-1.5004,-1.5026,-1.508,-1.5112,-1.5126,-1.5153,-1.5195,-1.5231,-1.5237,-1.5253,-1.5264,-1.527,-1.5209,-1.5201,-1.5194,-1.5183,-1.5267,-1.5267,-1.5332,-1.5333,-1.5333]},{"header":{"parameterUnit":"m.s-1","parameterCategory":1,"la1":30.2991,"la2":30.254,"lo1":-89.0895,"lo2":-89.0444,"dy":0.0017,"dx":0.0017,"nx":28,"ny":28,"refTime":"2024-10-08T21:00:00:Z","depth":0,"parameterNumber":3,"parameterNumberName":"V-component_of_WINDS"},"data":[0,0,0,0,0,0,0,0,0,0,0,0,0,0,0,0,0,0,0,0,0,0,0,0,0,0,0,0,0,0,0,0,0,0,0,0,0,0,0,0,0,0,0,0,0,0,0,0,0,0,0,0,0,0,0,0,0,0,-4.6716,-4.6716,0,-4.6754,-4.6755,-4.6755,-4.6687,-4.6684,-4.6682,-4.668,-4.6715,-4.6718,-4.6721,0,0,0,0,0,0,0,0,0,0,0,0,0,-4.6578,-4.6581,-4.6716,-4.6716,-4.6717,-4.6754,-4.6755,-4.6755,-4.6687,-4.6684,-4.6681,-4.6679,-4.6714,-4.6718,-4.6721,0,0,0,0,0,0,0,0,0,0,0,0,0,-4.6629,-4.6582,-4.6716,-4.6687,-4.6685,-4.6754,-4.6755,-4.6756,-4.6688,-4.6684,-4.6681,-4.6677,-4.6713,-4.6717,-4.6722,-4.6819,0,0,-4.6736,-4.6738,0,0,0,0,0,0,0,0,-4.6627,-4.6634,-4.6691,-4.6689,-4.6687,-4.6712,-4.6719,-4.6777,-4.6688,-4.6686,-4.668,-4.6676,-4.6717,-4.6721,-4.6735,-4.6821,-4.6823,-4.6737,-4.6739,-4.6741,-4.6743,0,0,0,0,0,0,0,-4.6623,-4.6632,-4.6731,-4.6692,-4.6689,-4.6671,-4.6674,-4.673,-4.672,-4.6686,-4.6681,-4.6687,-4.6715,-4.6731,-4.6736,-4.6823,-4.6736,-4.674,-4.6743,-4.6745,-4.6991,-4.6995,0,0,0,0,0,0,-4.6624,-4.663,-4.673,-4.6732,-4.6648,-4.6676,-4.668,-4.6707,-4.6719,-4.6718,-4.669,-4.6684,-4.6725,-4.673,-4.6737,-4.6853,-4.6741,-4.6746,-4.6748,-4.6988,-4.6992,-4.6996,0,0,0,0,0,0,-4.6621,-4.6633,-4.6728,-4.668,-4.669,-4.6682,-4.6714,-4.671,-4.6726,-4.6722,-4.672,-4.6709,-4.6722,-4.673,-4.68,-4.6853,-4.6748,-4.6752,-4.6983,-4.6989,-4.6994,-4.7085,0,0,0,0,0,0,-4.6617,-4.6633,-4.6671,-4.6681,-4.6693,-4.6792,-4.6717,-4.6713,-4.6735,-4.6727,-4.6739,-4.6738,-4.672,-4.6793,-4.6805,-4.6857,-4.6755,-4.6978,-4.6986,-4.6992,-4.7077,-4.7093,-4.7106,0,0,0,0,0,-4.6613,-4.6693,-4.6673,-4.6685,-4.6741,-4.6795,-4.6802,-4.6781,-4.674,-4.6777,-4.6775,-4.6738,-4.6845,-4.6801,-4.6813,-4.6868,-4.6975,-4.6984,-4.6992,-4.707,-4.709,-4.7106,0,0,0,0,0,0,-4.6687,-4.6694,-4.6672,-4.6758,-4.6777,-4.6784,-4.683,-4.6802,-4.6832,-4.6823,-4.6795,-4.6798,-4.6874,-4.6877,-4.6828,-4.6963,-4.6903,-4.6914,-4.6958,-4.6977,-4.6991,-4.6989,-4.6759,0,0,0,0,0,-4.6714,-4.6759,-4.6762,-4.6838,-4.6849,-4.6838,-4.6861,-4.6844,-4.6861,-4.6868,-4.6871,-4.6888,-4.6926,-4.6951,-4.6985,-4.7077,-4.7078,-4.712,-4.7135,-4.7147,-4.7157,-4.7207,-4.7225,-4.7024,-4.7024,-4.7024,0,0,-4.6769,-4.6779,-4.6809,-4.6854,-4.6866,-4.6912,-4.6845,-4.6897,-4.6931,-4.6876,-4.6942,-4.6945,-4.6962,-4.7044,-4.7079,-4.7049,-4.7213,-4.7158,-4.7168,-4.7171,-4.7217,-4.7236,-4.7253,-4.703,-4.7029,-4.7028,0,0,-4.6894,-4.6906,-4.6971,-4.6986,-4.7006,-4.6998,-4.7014,-4.7026,-4.7026,-4.7093,-4.7053,-4.7091,-4.7157,-4.7171,-4.7187,-4.7318,-4.7286,-4.733,-4.7407,-4.7455,-4.7471,-4.7485,-4.7533,-4.755,-4.734,-4.734,-4.7341,0,-4.696,-4.703,-4.7008,-4.7063,-4.7084,-4.7038,-4.7104,-4.7118,-4.7148,-4.7163,-4.7129,-4.7211,-4.7219,-4.7303,-4.7336,-4.735,-4.7366,-4.7329,-4.7471,-4.7485,-4.7497,-4.7542,-4.756,-4.7346,-4.7345,-4.7345,-4.7344,0,-4.711,-4.7159,-4.7209,-4.7242,-4.7268,-4.7328,-4.7314,-4.7343,-4.7324,-4.732,-4.7388,-4.7397,-4.7432,-4.7451,-4.7431,-4.7533,-4.7514,-4.7476,-4.7414,-4.7522,-4.7564,-4.7581,-4.7353,-4.7352,-4.735,-4.7349,0,0,-4.7283,-4.7304,-4.7323,-4.7337,-4.7357,-4.7393,-4.7451,-4.7488,-4.7514,-4.7535,-4.7583,-4.764,-4.7605,-4.7623,-4.7605,-4.7647,-4.7752,-4.7604,-4.7604,-4.7632,-4.7865,-4.7894,-4.7915,-4.773,-4.7733,-4.7736,-4.7864,0,-4.7408,-4.751,-4.7492,-4.759,-4.7635,-4.7593,-4.7643,-4.766,-4.7657,-4.7694,-4.769,-4.7732,-4.7682,-4.7693,-4.7733,-4.7731,-4.7799,-4.7721,-4.7774,-4.7776,-4.7772,-4.7936,-4.7967,-4.8088,-4.788,-4.7883,-4.7885,0,-4.7567,-4.7598,-4.7702,-4.7715,-4.7733,-4.7779,-4.7812,-4.7848,-4.7866,-4.7861,-4.7882,-4.7856,-4.7912,-4.785,-4.7927,-4.7875,-4.7895,-4.7898,-4.7902,-4.7906,-4.7838,-4.7946,-4.8126,-4.8144,-4.791,-4.7908,-4.7906,0,-4.7685,-4.7751,-4.7822,-4.7836,-4.7853,-4.7886,-4.7895,-4.7909,-4.7933,-4.7961,-4.7976,-4.8009,-4.8027,-4.8053,-4.8037,-4.7993,-4.8117,-4.8053,-4.8114,-4.8115,-4.8143,-4.8142,-4.8329,-4.8155,-4.8155,-4.8154,-4.8154,0,-4.7827,-4.7892,-4.7875,-4.7919,-4.7991,-4.7969,-4.804,-4.8043,-4.8056,-4.8099,-4.8063,-4.8103,-4.8079,-4.8117,-4.8104,-4.817,-4.8178,-4.8176,-4.8172,-4.818,-4.818,-4.8193,-4.8185,-4.8159,-4.8158,-4.8157,-4.8156,0,-4.797,-4.7961,-4.8036,-4.8047,-4.8051,-4.8104,-4.8112,-4.8152,-4.8147,-4.8202,-4.8213,-4.8205,-4.8249,-4.8235,-4.828,-4.8272,-4.8356,-4.8341,-4.8351,-4.8348,-4.841,-4.8405,-4.8613,-4.8639,-4.8447,-4.8449,-4.8451,0,-4.8062,-4.8111,-4.8128,-4.8155,-4.8167,-4.8211,-4.8235,-4.8215,-4.8242,-4.8267,-4.8304,-4.8344,-4.8376,-4.8447,-4.8444,-4.8479,-4.8465,-4.8535,-4.8469,-4.8476,-4.8467,-4.8465,-4.847,-4.8548,-4.8551,-4.8552,-4.8554,0,-4.8226,-4.8219,-4.8257,-4.8294,-4.8325,-4.8352,-4.8376,-4.84,-4.8381,-4.8413,-4.8458,-4.8482,-4.853,-4.8571,-4.8603,-4.8609,-4.8579,-4.8575,-4.8591,-4.86,-4.8604,-4.8604,-4.8388,-4.857,-4.8568,-4.8567,-4.8566,-4.8566,-4.8346,-4.8389,-4.8408,-4.8452,-4.8468,-4.8491,-4.853,-4.8531,-4.8569,-4.8608,-4.8593,-4.8645,-4.8661,-4.8701,-4.8712,-4.8752,-4.8724,-4.8748,-4.8754,-4.876,-4.8769,-4.8598,-4.8757,-4.8757,-4.8756,-4.8756,-4.8755,0,-4.851,-4.852,-4.856,-4.8596,-4.863,-4.86,-4.8625,-4.8655,-4.8702,-4.8721,-4.8753,-4.8805,-4.8844,-4.8845,-4.8882,-4.8913,-4.89,-4.8923,-4.8921,-4.8923,-4.879,-4.8773,-4.8933,-4.8933,-4.8933,-4.8933,-4.8933,-4.8933,-4.8599,-4.867,-4.8666,-4.8744,-4.8753,-4.8806,-4.8823,-4.8844,-4.8859,-4.8919,-4.8953,-4.8954,-4.8965,-4.9002,-4.9037,-4.9036,-4.9051,-4.908,-4.9074,-4.895,-4.8933,-4.8916,-4.89,-4.9084,-4.9084,-4.9204,-4.9205,-4.9206]}]]